User: anonymous   Login
Location: Unspecified
(0.0000°N, 0.0000°E)
Time: 06:10:23
(UTC+00:00)
Language:

FALCONSAT 3 - Orbit

View from above orbital plane
View from above orbital plane
View from above satellite
View from above satellite

Ground track
Ground track

The orbit data is extracted from the following two-line orbital elements,

1 30776U 07006E   18116.60969139 +.00002129 +00000-0 +64103-4 0  9998
2 30776 035.4355 235.0413 0003733 283.2527 076.7783 15.34315794616398
Epoch (UTC): 26 April 2018 14:37:57
Eccentricity: 0.0003733
inclination: 35.4355°
perigee height: 460 km
apogee height: 465 km
right ascension of ascending node: 235.0413°
argument of perigee: 283.2527°
revolutions per day: 15.34315794
mean anomaly at epoch: 76.7783°
orbit number at epoch: 61639

The dashed part of the orbit path shows where the satellite is in the earth's shadow,  

DLR